Time,TemperatureF,DewpointF,PressureIn,WindDirection,WindDirectionDegrees,WindSpeedMPH,WindSpeedGustMPH,Humidity,HourlyPrecipIn,Conditions,Clouds,dailyrainin,SolarRadiationWatts/m^2,SoftwareType,DateUTC
2013-02-25 00:01:00,41.0,39.0,-100.00,SSE,153,7.0,19.0,92,0.28,,,1.33,0.000000,,2013-02-25 08:01:00,
2013-02-25 00:11:00,41.0,39.0,-100.00,SSE,153,7.0,19.0,92,0.28,,,1.33,0.000000,,2013-02-25 08:11:00,
2013-02-25 00:21:00,41.0,39.0,-100.00,SSE,153,7.0,19.0,92,0.28,,,1.33,0.000000,,2013-02-25 08:21:00,
2013-02-25 00:31:00,41.0,39.0,-100.00,SSE,153,7.0,19.0,92,0.28,,,1.33,0.000000,,2013-02-25 08:31:00,
2013-02-25 00:52:00,40.0,39.0,-100.00,South,189,1.0,21.0,95,0.17,,,1.50,0.000000,,2013-02-25 08:52:00,
2013-02-25 01:01:00,40.0,39.0,-100.00,South,189,1.0,21.0,95,0.17,,,1.50,0.000000,,2013-02-25 09:01:00,
2013-02-25 01:12:00,40.0,39.0,-100.00,South,189,1.0,21.0,95,0.17,,,1.50,0.000000,,2013-02-25 09:12:00,
2013-02-25 01:21:00,40.0,39.0,-100.00,South,189,1.0,21.0,95,0.17,,,1.50,0.000000,,2013-02-25 09:21:00,
2013-02-25 01:31:00,40.0,39.0,-100.00,South,189,1.0,21.0,95,0.17,,,1.50,0.000000,,2013-02-25 09:31:00,
2013-02-25 01:52:00,41.0,40.0,-100.00,WSW,252,0.0,5.0,96,0.01,,,1.51,0.000000,,2013-02-25 09:52:00,
2013-02-25 02:01:00,41.0,40.0,-100.00,WSW,252,0.0,5.0,96,0.01,,,1.51,0.000000,,2013-02-25 10:01:00,
2013-02-25 02:11:00,41.0,40.0,-100.00,WSW,252,0.0,5.0,96,0.01,,,1.51,0.000000,,2013-02-25 10:11:00,
2013-02-25 02:21:00,41.0,40.0,-100.00,WSW,252,0.0,5.0,96,0.01,,,1.51,0.000000,,2013-02-25 10:21:00,
2013-02-25 02:31:00,41.0,40.0,-100.00,WSW,252,0.0,5.0,96,0.01,,,1.51,0.000000,,2013-02-25 10:31:00,
2013-02-25 02:52:00,40.0,38.0,-100.00,WSW,245,2.0,10.0,94,0.03,,,1.54,0.000000,,2013-02-25 10:52:00,
2013-02-25 03:01:00,40.0,38.0,-100.00,WSW,245,2.0,10.0,94,0.03,,,1.54,0.000000,,2013-02-25 11:01:00,
2013-02-25 03:11:00,40.0,38.0,-100.00,WSW,245,2.0,10.0,94,0.03,,,1.54,0.000000,,2013-02-25 11:11:00,
2013-02-25 03:21:00,40.0,38.0,-100.00,WSW,245,2.0,10.0,94,0.03,,,1.54,0.000000,,2013-02-25 11:21:00,
2013-02-25 03:31:00,40.0,38.0,-100.00,WSW,245,2.0,10.0,94,0.03,,,1.54,0.000000,,2013-02-25 11:31:00,
2013-02-25 04:55:00,40.0,39.0,-100.00,WSW,251,3.0,14.0,95,-99.99,,,-99.99,0.000000,,2013-02-25 12:55:00,
2013-02-25 05:02:00,40.0,39.0,-100.00,WSW,251,3.0,14.0,95,-99.99,,,-99.99,0.000000,,2013-02-25 13:02:00,
2013-02-25 05:12:00,40.0,39.0,-100.00,WSW,251,3.0,14.0,95,-99.99,,,-99.99,0.000000,,2013-02-25 13:12:00,
2013-02-25 05:22:00,40.0,39.0,-100.00,WSW,251,3.0,14.0,95,-99.99,,,-99.99,0.000000,,2013-02-25 13:22:00,
2013-02-25 05:31:00,40.0,39.0,-100.00,WSW,251,3.0,14.0,95,-99.99,,,-99.99,0.000000,,2013-02-25 13:31:00,
2013-02-25 05:52:00,40.0,39.0,-100.00,SW,214,1.0,9.0,95,0.04,,,1.64,0.000000,,2013-02-25 13:52:00,
2013-02-25 06:02:00,40.0,39.0,-100.00,SW,214,1.0,9.0,95,0.04,,,1.64,0.000000,,2013-02-25 14:02:00,
2013-02-25 06:15:00,40.0,39.0,-100.00,SW,214,1.0,9.0,95,0.04,,,1.64,0.000000,,2013-02-25 14:15:00,
2013-02-25 06:21:00,40.0,39.0,-100.00,SW,214,1.0,9.0,95,0.04,,,1.64,0.000000,,2013-02-25 14:21:00,
2013-02-25 06:31:00,40.0,39.0,-100.00,SW,214,1.0,9.0,95,0.04,,,1.64,0.000000,,2013-02-25 14:31:00,
2013-02-25 06:52:00,41.0,39.0,-100.00,WSW,258,4.0,13.0,91,0.00,,,1.64,0.000000,,2013-02-25 14:52:00,
2013-02-25 07:02:00,41.0,39.0,-100.00,WSW,258,4.0,13.0,91,0.00,,,1.64,0.000000,,2013-02-25 15:02:00,
2013-02-25 07:11:00,41.0,39.0,-100.00,WSW,258,4.0,13.0,91,0.00,,,1.64,0.000000,,2013-02-25 15:11:00,
2013-02-25 07:21:00,41.0,39.0,-100.00,WSW,258,4.0,13.0,91,0.00,,,1.64,0.000000,,2013-02-25 15:21:00,
2013-02-25 07:32:00,41.0,39.0,-100.00,WSW,258,4.0,13.0,91,0.00,,,1.64,0.000000,,2013-02-25 15:32:00,
2013-02-25 07:52:00,41.0,38.0,-100.00,West,260,6.0,19.0,88,0.02,,,1.65,2.000000,,2013-02-25 15:52:00,
2013-02-25 08:01:00,41.0,38.0,-100.00,West,260,6.0,19.0,88,0.02,,,1.65,2.000000,,2013-02-25 16:01:00,
2013-02-25 08:11:00,41.0,38.0,-100.00,West,260,6.0,19.0,88,0.02,,,1.65,2.000000,,2013-02-25 16:11:00,
2013-02-25 08:21:00,41.0,38.0,-100.00,West,260,6.0,19.0,88,0.02,,,1.65,2.000000,,2013-02-25 16:21:00,
2013-02-25 08:31:00,41.0,38.0,-100.00,West,260,6.0,19.0,88,0.02,,,1.65,2.000000,,2013-02-25 16:31:00,
2013-02-25 08:52:00,41.0,35.0,-100.00,West,262,7.0,18.0,79,0.00,,,1.63,16.000000,,2013-02-25 16:52:00,
2013-02-25 09:01:00,41.0,35.0,-100.00,West,262,7.0,18.0,79,0.00,,,1.63,16.000000,,2013-02-25 17:01:00,
2013-02-25 09:11:00,41.0,35.0,-100.00,West,262,7.0,18.0,79,0.00,,,1.63,16.000000,,2013-02-25 17:11:00,
2013-02-25 09:21:00,41.0,35.0,-100.00,West,262,7.0,18.0,79,0.00,,,1.63,16.000000,,2013-02-25 17:21:00,
2013-02-25 09:31:00,41.0,35.0,-100.00,West,262,7.0,18.0,79,0.00,,,1.63,16.000000,,2013-02-25 17:31:00,
2013-02-25 09:52:00,43.0,34.0,-100.00,West,266,6.0,18.0,71,0.00,,,-99.99,72.000000,,2013-02-25 17:52:00,
2013-02-25 10:01:00,43.0,34.0,-100.00,West,266,6.0,18.0,71,0.00,,,-99.99,72.000000,,2013-02-25 18:01:00,
2013-02-25 10:12:00,43.0,34.0,-100.00,West,266,6.0,18.0,71,0.00,,,-99.99,72.000000,,2013-02-25 18:12:00,
2013-02-25 10:21:00,43.0,34.0,-100.00,West,266,6.0,18.0,71,0.00,,,-99.99,72.000000,,2013-02-25 18:21:00,
2013-02-25 10:32:00,43.0,34.0,-100.00,West,266,6.0,18.0,71,0.00,,,-99.99,72.000000,,2013-02-25 18:32:00,
2013-02-25 10:52:00,43.0,37.0,-100.00,West,269,6.0,16.0,80,0.00,,,1.61,149.000000,,2013-02-25 18:52:00,
2013-02-25 11:01:00,43.0,37.0,-100.00,West,269,6.0,16.0,80,0.00,,,1.61,149.000000,,2013-02-25 19:01:00,
2013-02-25 11:11:00,43.0,37.0,-100.00,West,269,6.0,16.0,80,0.00,,,1.61,149.000000,,2013-02-25 19:11:00,
2013-02-25 11:21:00,43.0,37.0,-100.00,West,269,6.0,16.0,80,0.00,,,1.61,149.000000,,2013-02-25 19:21:00,
2013-02-25 11:31:00,43.0,37.0,-100.00,West,269,6.0,16.0,80,0.00,,,1.61,149.000000,,2013-02-25 19:31:00,
2013-02-25 11:52:00,44.0,33.0,-100.00,West,267,9.0,27.0,65,0.00,,,1.58,181.000000,,2013-02-25 19:52:00,
2013-02-25 12:01:00,44.0,33.0,-100.00,West,267,9.0,27.0,65,0.00,,,1.58,181.000000,,2013-02-25 20:01:00,
2013-02-25 12:11:00,44.0,33.0,-100.00,West,267,9.0,27.0,65,0.00,,,1.58,181.000000,,2013-02-25 20:11:00,
2013-02-25 12:21:00,44.0,33.0,-100.00,West,267,9.0,27.0,65,0.00,,,1.58,181.000000,,2013-02-25 20:21:00,
2013-02-25 12:31:00,44.0,33.0,-100.00,West,267,9.0,27.0,65,0.00,,,1.58,181.000000,,2013-02-25 20:31:00,
2013-02-25 12:52:00,47.0,33.0,-100.00,West,273,6.0,19.0,58,0.00,,,1.55,314.000000,,2013-02-25 20:52:00,
2013-02-25 13:01:00,47.0,33.0,-100.00,West,273,6.0,19.0,58,0.00,,,1.55,314.000000,,2013-02-25 21:01:00,
2013-02-25 13:11:00,47.0,33.0,-100.00,West,273,6.0,19.0,58,0.00,,,1.55,314.000000,,2013-02-25 21:11:00,
2013-02-25 13:21:00,47.0,33.0,-100.00,West,273,6.0,19.0,58,0.00,,,1.55,314.000000,,2013-02-25 21:21:00,
2013-02-25 13:31:00,47.0,33.0,-100.00,West,273,6.0,19.0,58,0.00,,,1.55,314.000000,,2013-02-25 21:31:00,
2013-02-25 13:52:00,48.0,36.0,-100.00,West,264,8.0,19.0,64,0.00,,,1.48,452.000000,,2013-02-25 21:52:00,
2013-02-25 14:01:00,48.0,36.0,-100.00,West,264,8.0,19.0,64,0.00,,,1.48,452.000000,,2013-02-25 22:01:00,
2013-02-25 14:11:00,48.0,36.0,-100.00,West,264,8.0,19.0,64,0.00,,,1.48,452.000000,,2013-02-25 22:11:00,
2013-02-25 14:21:00,48.0,36.0,-100.00,West,264,8.0,19.0,64,0.00,,,1.48,452.000000,,2013-02-25 22:21:00,
2013-02-25 14:31:00,48.0,36.0,-100.00,West,264,8.0,19.0,64,0.00,,,1.48,452.000000,,2013-02-25 22:31:00,
2013-02-25 14:52:00,45.0,33.0,-100.00,West,269,8.0,17.0,63,0.00,,,1.43,327.000000,,2013-02-25 22:52:00,
2013-02-25 15:01:00,45.0,33.0,-100.00,West,269,8.0,17.0,63,0.00,,,1.43,327.000000,,2013-02-25 23:01:00,
2013-02-25 15:11:00,45.0,33.0,-100.00,West,269,8.0,17.0,63,0.00,,,1.43,327.000000,,2013-02-25 23:11:00,
2013-02-25 15:22:00,45.0,33.0,-100.00,West,269,8.0,17.0,63,0.00,,,1.43,327.000000,,2013-02-25 23:22:00,
2013-02-25 15:31:00,45.0,33.0,-100.00,West,269,8.0,17.0,63,0.00,,,1.43,327.000000,,2013-02-25 23:31:00,
2013-02-25 15:52:00,46.0,35.0,-100.00,West,271,6.0,18.0,66,0.00,,,1.37,180.000000,,2013-02-25 23:52:00,
2013-02-25 16:01:00,46.0,35.0,-100.00,West,271,6.0,18.0,66,0.00,,,1.37,180.000000,,2013-02-26 00:01:00,
2013-02-25 16:11:00,46.0,35.0,-100.00,West,271,6.0,18.0,66,0.00,,,1.37,180.000000,,2013-02-26 00:11:00,
2013-02-25 16:21:00,46.0,35.0,-100.00,West,271,6.0,18.0,66,0.00,,,1.37,180.000000,,2013-02-26 00:21:00,
2013-02-25 16:32:00,46.0,35.0,-100.00,West,271,6.0,18.0,66,0.00,,,1.37,180.000000,,2013-02-26 00:32:00,
2013-02-25 16:52:00,45.0,35.0,-100.00,WNW,285,5.0,14.0,69,0.00,,,1.31,128.000000,,2013-02-26 00:52:00,
2013-02-25 17:02:00,45.0,35.0,-100.00,WNW,285,5.0,14.0,69,0.00,,,1.31,128.000000,,2013-02-26 01:02:00,
2013-02-25 17:11:00,45.0,35.0,-100.00,WNW,285,5.0,14.0,69,0.00,,,1.31,128.000000,,2013-02-26 01:11:00,
2013-02-25 17:21:00,45.0,35.0,-100.00,WNW,285,5.0,14.0,69,0.00,,,1.31,128.000000,,2013-02-26 01:21:00,
2013-02-25 17:31:00,45.0,35.0,-100.00,WNW,285,5.0,14.0,69,0.00,,,1.31,128.000000,,2013-02-26 01:31:00,
2013-02-25 17:52:00,43.0,35.0,-100.00,West,261,3.0,13.0,74,0.00,,,1.22,38.000000,,2013-02-26 01:52:00,
2013-02-25 18:01:00,43.0,35.0,-100.00,West,261,3.0,13.0,74,0.00,,,1.22,38.000000,,2013-02-26 02:01:00,
2013-02-25 18:11:00,43.0,35.0,-100.00,West,261,3.0,13.0,74,0.00,,,1.22,38.000000,,2013-02-26 02:11:00,
2013-02-25 18:21:00,43.0,35.0,-100.00,West,261,3.0,13.0,74,0.00,,,1.22,38.000000,,2013-02-26 02:21:00,
2013-02-25 18:31:00,43.0,35.0,-100.00,West,261,3.0,13.0,74,0.00,,,1.22,38.000000,,2013-02-26 02:31:00,
2013-02-25 18:52:00,42.0,36.0,-100.00,WSW,245,3.0,12.0,78,0.00,,,1.12,5.000000,,2013-02-26 02:52:00,
2013-02-25 19:01:00,42.0,36.0,-100.00,WSW,245,3.0,12.0,78,0.00,,,1.12,5.000000,,2013-02-26 03:01:00,
2013-02-25 19:11:00,42.0,36.0,-100.00,WSW,245,3.0,12.0,78,0.00,,,1.12,5.000000,,2013-02-26 03:11:00,
2013-02-25 19:21:00,42.0,36.0,-100.00,WSW,245,3.0,12.0,78,0.00,,,1.12,5.000000,,2013-02-26 03:21:00,
2013-02-25 19:31:00,42.0,36.0,-100.00,WSW,245,3.0,12.0,78,0.00,,,1.12,5.000000,,2013-02-26 03:31:00,
2013-02-25 19:52:00,40.0,35.0,-100.00,SW,232,1.0,5.0,82,0.00,,,1.01,0.000000,,2013-02-26 03:52:00,
2013-02-25 20:01:00,40.0,35.0,-100.00,SW,232,1.0,5.0,82,0.00,,,1.01,0.000000,,2013-02-26 04:01:00,
2013-02-25 20:11:00,40.0,35.0,-100.00,SW,232,1.0,5.0,82,0.00,,,1.01,0.000000,,2013-02-26 04:11:00,
2013-02-25 20:21:00,40.0,35.0,-100.00,SW,232,1.0,5.0,82,0.00,,,1.01,0.000000,,2013-02-26 04:21:00,
2013-02-25 20:31:00,40.0,35.0,-100.00,SW,232,1.0,5.0,82,0.00,,,1.01,0.000000,,2013-02-26 04:31:00,
2013-02-25 20:52:00,38.0,35.0,-100.00,ENE,63,0.0,3.0,88,0.00,,,0.89,0.000000,,2013-02-26 04:52:00,
2013-02-25 21:01:00,38.0,35.0,-100.00,ENE,63,0.0,3.0,88,0.00,,,0.89,0.000000,,2013-02-26 05:01:00,
2013-02-25 21:11:00,38.0,35.0,-100.00,ENE,63,0.0,3.0,88,0.00,,,0.89,0.000000,,2013-02-26 05:11:00,
2013-02-25 21:21:00,38.0,35.0,-100.00,ENE,63,0.0,3.0,88,0.00,,,0.89,0.000000,,2013-02-26 05:21:00,
2013-02-25 21:31:00,38.0,35.0,-100.00,ENE,63,0.0,3.0,88,0.00,,,0.89,0.000000,,2013-02-26 05:31:00,
2013-02-25 21:52:00,36.0,34.0,-100.00,SSE,158,0.0,3.0,92,0.00,,,0.78,0.000000,,2013-02-26 05:52:00,
2013-02-25 22:01:00,36.0,34.0,-100.00,SSE,158,0.0,3.0,92,0.00,,,0.78,0.000000,,2013-02-26 06:01:00,
2013-02-25 22:11:00,36.0,34.0,-100.00,SSE,158,0.0,3.0,92,0.00,,,0.78,0.000000,,2013-02-26 06:11:00,
2013-02-25 22:21:00,36.0,34.0,-100.00,SSE,158,0.0,3.0,92,0.00,,,0.78,0.000000,,2013-02-26 06:21:00,
2013-02-25 22:31:00,36.0,34.0,-100.00,SSE,158,0.0,3.0,92,0.00,,,0.78,0.000000,,2013-02-26 06:31:00,
2013-02-25 22:52:00,36.0,34.0,-100.00,ESE,106,1.0,3.0,93,0.00,,,0.63,0.000000,,2013-02-26 06:52:00,
2013-02-25 23:01:00,36.0,34.0,-100.00,ESE,106,1.0,3.0,93,0.00,,,0.63,0.000000,,2013-02-26 07:01:00,
2013-02-25 23:11:00,36.0,34.0,-100.00,ESE,106,1.0,3.0,93,0.00,,,0.63,0.000000,,2013-02-26 07:11:00,
2013-02-25 23:22:00,36.0,34.0,-100.00,ESE,106,1.0,3.0,93,0.00,,,0.63,0.000000,,2013-02-26 07:22:00,
2013-02-25 23:31:00,36.0,34.0,-100.00,ESE,106,1.0,3.0,93,0.00,,,0.63,0.000000,,2013-02-26 07:31:00,
2013-02-25 23:52:00,36.0,34.0,-100.00,ESE,114,2.0,4.0,93,0.00,,,0.35,0.000000,,2013-02-26 07:52:00,